Time,TemperatureF,DewpointF,PressureIn,WindDirection,WindDirectionDegrees,WindSpeedMPH,WindSpeedGustMPH,Humidity,HourlyPrecipIn,Conditions,Clouds,dailyrainin,SoftwareType,DateUTC
2013-07-02 00:01:00,56.3,56.0,29.64,SW,225,4.2,10.0,98,0.00,,,0.00,Rainwise IP-100,2013-07-02 07:01:00,
2013-07-02 00:06:00,56.1,55.0,29.64,South,180,5.4,8.6,98,0.00,,,0.00,Rainwise IP-100,2013-07-02 07:06:00,
2013-07-02 00:11:00,55.8,55.0,29.63,WSW,247,6.8,12.1,98,0.00,,,0.00,Rainwise IP-100,2013-07-02 07:11:00,
2013-07-02 00:16:00,55.7,55.0,29.63,NNW,337,4.2,12.6,98,0.00,,,0.00,Rainwise IP-100,2013-07-02 07:16:00,
2013-07-02 00:21:00,55.7,55.0,29.63,SW,225,11.2,11.9,98,0.00,,,0.00,Rainwise IP-100,2013-07-02 07:21:00,
2013-07-02 00:26:00,55.7,55.0,29.63,SSW,202,8.9,11.7,98,0.00,,,0.00,Rainwise IP-100,2013-07-02 07:26:00,
2013-07-02 00:31:00,56.0,55.0,29.62,SW,225,9.8,11.0,98,0.00,,,0.00,Rainwise IP-100,2013-07-02 07:31:00,
2013-07-02 00:36:00,56.1,55.0,29.62,SW,225,6.3,11.9,98,0.00,,,0.00,Rainwise IP-100,2013-07-02 07:36:00,
2013-07-02 00:41:00,56.2,55.0,29.63,WSW,247,7.0,12.4,98,0.00,,,0.00,Rainwise IP-100,2013-07-02 07:41:00,
2013-07-02 00:46:00,56.2,55.0,29.63,SSW,202,7.9,9.6,98,0.00,,,0.00,Rainwise IP-100,2013-07-02 07:46:00,
2013-07-02 00:51:00,56.3,56.0,29.62,SSW,202,3.3,9.3,98,0.00,,,0.00,Rainwise IP-100,2013-07-02 07:51:00,
2013-07-02 00:56:00,56.4,56.0,29.62,SW,225,8.2,11.9,98,0.00,,,0.00,Rainwise IP-100,2013-07-02 07:56:00,
2013-07-02 01:01:00,56.3,56.0,29.62,SW,225,6.1,10.5,98,0.00,,,0.00,Rainwise IP-100,2013-07-02 08:01:00,
2013-07-02 01:06:00,56.1,55.0,29.62,SW,225,4.2,10.3,98,0.00,,,0.00,Rainwise IP-100,2013-07-02 08:06:00,
2013-07-02 01:11:00,55.9,55.0,29.62,SW,225,7.2,11.7,98,0.00,,,0.00,Rainwise IP-100,2013-07-02 08:11:00,
2013-07-02 01:16:00,56.0,55.0,29.62,SSW,202,3.5,9.8,98,0.00,,,0.00,Rainwise IP-100,2013-07-02 08:16:00,
2013-07-02 01:21:00,56.1,55.0,29.61,WSW,247,5.1,11.4,98,0.00,,,0.00,Rainwise IP-100,2013-07-02 08:21:00,
2013-07-02 01:26:00,56.2,55.0,29.62,SW,225,6.3,9.6,98,0.00,,,0.00,Rainwise IP-100,2013-07-02 08:26:00,
2013-07-02 01:31:00,56.3,56.0,29.61,SW,225,6.3,11.4,98,0.00,,,0.00,Rainwise IP-100,2013-07-02 08:31:00,
2013-07-02 01:36:00,56.3,56.0,29.61,WSW,247,5.1,9.3,98,0.00,,,0.00,Rainwise IP-100,2013-07-02 08:36:00,
2013-07-02 01:41:00,56.3,56.0,29.62,SW,225,5.6,10.3,98,0.00,,,0.00,Rainwise IP-100,2013-07-02 08:41:00,
2013-07-02 01:46:00,56.3,56.0,29.61,SSW,202,7.7,9.1,98,0.00,,,0.00,Rainwise IP-100,2013-07-02 08:46:00,
2013-07-02 01:51:00,56.3,56.0,29.61,SW,225,2.1,10.7,98,0.00,,,0.00,Rainwise IP-100,2013-07-02 08:51:00,
2013-07-02 01:56:00,56.3,56.0,29.61,SW,225,3.5,12.8,98,0.00,,,0.00,Rainwise IP-100,2013-07-02 08:56:00,
2013-07-02 02:01:00,56.1,55.0,29.61,SSW,202,4.4,11.4,98,0.00,,,0.00,Rainwise IP-100,2013-07-02 09:01:00,
2013-07-02 02:06:00,56.0,55.0,29.61,SW,225,6.3,12.4,98,0.00,,,0.00,Rainwise IP-100,2013-07-02 09:06:00,
2013-07-02 02:11:00,56.0,56.0,29.61,WSW,247,5.4,10.3,99,0.00,,,0.00,Rainwise IP-100,2013-07-02 09:11:00,
2013-07-02 02:16:00,56.0,56.0,29.61,SW,225,9.8,11.4,99,0.00,,,0.00,Rainwise IP-100,2013-07-02 09:16:00,
2013-07-02 02:21:00,55.9,56.0,29.61,WSW,247,8.4,11.0,99,0.00,,,0.00,Rainwise IP-100,2013-07-02 09:21:00,
2013-07-02 02:26:00,55.8,56.0,29.60,WSW,247,3.5,12.1,99,0.00,,,0.00,Rainwise IP-100,2013-07-02 09:26:00,
2013-07-02 02:31:00,55.7,56.0,29.61,WSW,247,6.5,11.0,99,0.00,,,0.00,Rainwise IP-100,2013-07-02 09:31:00,
2013-07-02 02:36:00,55.6,56.0,29.60,SW,225,5.1,11.0,99,0.00,,,0.00,Rainwise IP-100,2013-07-02 09:36:00,
2013-07-02 02:41:00,55.6,56.0,29.61,SW,225,4.9,11.9,99,0.00,,,0.00,Rainwise IP-100,2013-07-02 09:41:00,
2013-07-02 02:46:00,55.5,56.0,29.61,SW,225,8.6,10.7,99,0.00,,,0.00,Rainwise IP-100,2013-07-02 09:46:00,
2013-07-02 02:51:00,55.4,55.0,29.61,WSW,247,5.4,11.0,99,0.00,,,0.00,Rainwise IP-100,2013-07-02 09:51:00,
2013-07-02 02:56:00,55.3,55.0,29.61,SSW,202,5.6,10.3,99,0.00,,,0.00,Rainwise IP-100,2013-07-02 09:56:00,
2013-07-02 03:01:00,55.3,55.0,29.60,WSW,247,6.5,11.7,99,0.00,,,0.00,Rainwise IP-100,2013-07-02 10:01:00,
2013-07-02 03:06:00,55.4,55.0,29.60,SW,225,4.2,11.7,99,0.00,,,0.00,Rainwise IP-100,2013-07-02 10:06:00,
2013-07-02 03:11:00,55.4,55.0,29.60,SSW,202,6.5,13.5,99,0.00,,,0.00,Rainwise IP-100,2013-07-02 10:11:00,
2013-07-02 03:16:00,55.4,55.0,29.61,SW,225,4.2,11.0,100,0.00,,,0.00,Rainwise IP-100,2013-07-02 10:16:00,
2013-07-02 03:21:00,55.4,55.0,29.61,WSW,247,4.2,11.2,100,0.00,,,0.00,Rainwise IP-100,2013-07-02 10:21:00,
2013-07-02 03:26:00,55.4,55.0,29.60,WSW,247,6.5,10.0,100,0.00,,,0.00,Rainwise IP-100,2013-07-02 10:26:00,
2013-07-02 03:31:00,55.5,56.0,29.60,SSW,202,7.0,11.4,100,0.00,,,0.00,Rainwise IP-100,2013-07-02 10:31:00,
2013-07-02 03:36:00,55.5,56.0,29.61,SSE,157,2.8,10.5,100,0.00,,,0.00,Rainwise IP-100,2013-07-02 10:36:00,
2013-07-02 03:41:00,55.5,56.0,29.60,SSW,202,8.6,11.4,100,0.00,,,0.00,Rainwise IP-100,2013-07-02 10:41:00,
2013-07-02 03:46:00,55.4,55.0,29.60,SSW,202,4.4,10.7,100,0.00,,,0.00,Rainwise IP-100,2013-07-02 10:46:00,
2013-07-02 03:51:00,55.4,55.0,29.61,WSW,247,5.8,12.6,100,0.00,,,0.00,Rainwise IP-100,2013-07-02 10:51:00,
2013-07-02 03:56:00,55.4,55.0,29.61,West,270,8.2,11.9,100,0.00,,,0.00,Rainwise IP-100,2013-07-02 10:56:00,
2013-07-02 04:01:00,55.4,55.0,29.60,SW,225,10.3,12.8,100,0.00,,,0.00,Rainwise IP-100,2013-07-02 11:01:00,
2013-07-02 04:05:00,55.4,55.0,29.61,South,180,5.1,11.9,100,0.00,,,0.00,Rainwise IP-100,2013-07-02 11:05:00,
2013-07-02 04:06:00,55.4,55.0,29.61,SSW,202,2.3,11.9,100,0.00,,,0.00,Rainwise IP-100,2013-07-02 11:06:00,
2013-07-02 04:11:00,55.4,55.0,29.62,SW,225,2.6,10.7,100,0.00,,,0.00,Rainwise IP-100,2013-07-02 11:11:00,
2013-07-02 04:16:00,55.5,56.0,29.61,SW,225,7.2,10.5,100,0.00,,,0.00,Rainwise IP-100,2013-07-02 11:16:00,
2013-07-02 04:21:00,55.6,56.0,29.61,SSW,202,5.6,12.4,100,0.00,,,0.00,Rainwise IP-100,2013-07-02 11:21:00,
2013-07-02 04:26:00,55.6,56.0,29.60,SW,225,11.4,12.8,100,0.00,,,0.00,Rainwise IP-100,2013-07-02 11:26:00,
2013-07-02 04:31:00,55.7,56.0,29.61,WSW,247,4.9,18.9,100,0.00,,,0.00,Rainwise IP-100,2013-07-02 11:31:00,
2013-07-02 04:36:00,55.8,56.0,29.61,SSW,202,5.1,10.3,100,0.00,,,0.00,Rainwise IP-100,2013-07-02 11:36:00,
2013-07-02 04:41:00,55.8,56.0,29.62,WSW,247,4.2,9.8,100,0.00,,,0.00,Rainwise IP-100,2013-07-02 11:41:00,
2013-07-02 04:46:00,55.9,56.0,29.61,SW,225,2.8,10.3,100,0.00,,,0.00,Rainwise IP-100,2013-07-02 11:46:00,
2013-07-02 04:51:00,55.9,56.0,29.61,SSW,202,3.0,13.8,100,0.00,,,0.00,Rainwise IP-100,2013-07-02 11:51:00,
2013-07-02 04:56:00,56.1,56.0,29.61,SW,225,5.1,11.7,100,0.00,,,0.00,Rainwise IP-100,2013-07-02 11:56:00,
2013-07-02 05:01:00,56.2,56.0,29.61,South,180,8.9,12.1,100,0.00,,,0.00,Rainwise IP-100,2013-07-02 12:01:00,
2013-07-02 05:06:00,56.2,56.0,29.61,SSW,202,2.6,11.7,100,0.00,,,0.00,Rainwise IP-100,2013-07-02 12:06:00,
2013-07-02 05:11:00,56.1,56.0,29.61,WSW,247,7.0,9.6,100,0.00,,,0.00,Rainwise IP-100,2013-07-02 12:11:00,
2013-07-02 05:16:00,56.1,56.0,29.61,SW,225,4.7,11.2,100,0.00,,,0.00,Rainwise IP-100,2013-07-02 12:16:00,
2013-07-02 05:21:00,56.0,56.0,29.62,SSW,202,4.7,9.8,100,0.00,,,0.00,Rainwise IP-100,2013-07-02 12:21:00,
2013-07-02 05:26:00,56.0,56.0,29.62,WSW,247,6.5,9.8,100,0.00,,,0.00,Rainwise IP-100,2013-07-02 12:26:00,
2013-07-02 05:31:00,56.1,56.0,29.62,SW,225,3.5,11.4,100,0.00,,,0.00,Rainwise IP-100,2013-07-02 12:31:00,
2013-07-02 05:36:00,56.1,56.0,29.62,WSW,247,3.7,11.9,100,0.00,,,0.00,Rainwise IP-100,2013-07-02 12:36:00,
2013-07-02 05:42:00,56.2,56.0,29.62,SSW,202,7.5,10.0,100,0.00,,,0.00,Rainwise IP-100,2013-07-02 12:42:00,
2013-07-02 05:47:00,56.3,56.5,29.62,SW,225,4.7,12.6,99,0.00,,,0.00,Rainwise IP-100,2013-07-02 12:47:00,
2013-07-02 05:52:00,56.4,56.5,29.62,SSW,202,4.9,11.9,99,0.00,,,0.00,Rainwise IP-100,2013-07-02 12:52:00,
2013-07-02 05:57:00,56.5,56.5,29.62,SW,225,9.3,12.4,99,0.00,,,0.00,Rainwise IP-100,2013-07-02 12:57:00,
2013-07-02 06:02:00,56.6,56.5,29.62,WSW,247,3.5,10.3,99,0.00,,,0.00,Rainwise IP-100,2013-07-02 13:02:00,
2013-07-02 06:07:00,56.7,56.5,29.61,SSW,202,8.6,11.9,99,0.00,,,0.00,Rainwise IP-100,2013-07-02 13:07:00,
2013-07-02 06:12:00,56.7,56.5,29.61,SW,225,4.9,10.5,99,0.00,,,0.00,Rainwise IP-100,2013-07-02 13:12:00,
2013-07-02 06:17:00,56.7,56.5,29.62,SW,225,6.1,12.4,99,0.00,,,0.00,Rainwise IP-100,2013-07-02 13:17:00,
2013-07-02 06:22:00,56.8,57.0,29.62,SSW,202,3.3,10.3,99,0.00,,,0.00,Rainwise IP-100,2013-07-02 13:22:00,
2013-07-02 06:27:00,56.7,56.5,29.63,SW,225,3.0,10.5,99,0.00,,,0.00,Rainwise IP-100,2013-07-02 13:27:00,
2013-07-02 06:32:00,56.7,56.5,29.63,SW,225,6.5,13.5,99,0.00,,,0.00,Rainwise IP-100,2013-07-02 13:32:00,
2013-07-02 06:37:00,56.6,56.5,29.63,SW,225,6.3,14.2,99,0.00,,,0.00,Rainwise IP-100,2013-07-02 13:37:00,
2013-07-02 06:42:00,56.6,56.5,29.63,SW,225,8.9,14.5,99,0.00,,,0.00,Rainwise IP-100,2013-07-02 13:42:00,
2013-07-02 06:47:00,56.7,56.5,29.63,SSW,202,5.8,13.5,99,0.00,,,0.00,Rainwise IP-100,2013-07-02 13:47:00,
2013-07-02 06:52:00,56.7,56.5,29.63,SW,225,6.8,14.0,99,0.00,,,0.00,Rainwise IP-100,2013-07-02 13:52:00,
2013-07-02 06:57:00,56.7,56.5,29.64,SW,225,6.1,11.7,99,0.00,,,0.00,Rainwise IP-100,2013-07-02 13:57:00,
2013-07-02 07:02:00,56.7,56.5,29.64,SW,225,11.2,15.2,99,0.00,,,0.00,Rainwise IP-100,2013-07-02 14:02:00,
2013-07-02 07:07:00,56.6,56.5,29.64,SSW,202,2.3,16.3,99,0.00,,,0.00,Rainwise IP-100,2013-07-02 14:07:00,
2013-07-02 07:12:00,56.6,56.5,29.64,WSW,247,7.2,16.3,99,0.00,,,0.00,Rainwise IP-100,2013-07-02 14:12:00,
2013-07-02 07:17:00,56.7,56.5,29.64,SW,225,12.6,15.9,99,0.00,,,0.00,Rainwise IP-100,2013-07-02 14:17:00,
2013-07-02 07:22:00,56.8,57.0,29.64,WSW,247,10.7,14.5,99,0.00,,,0.00,Rainwise IP-100,2013-07-02 14:22:00,
2013-07-02 07:27:00,56.8,57.0,29.64,SW,225,10.0,16.6,99,0.00,,,0.00,Rainwise IP-100,2013-07-02 14:27:00,
2013-07-02 07:32:00,56.7,56.5,29.64,SW,225,10.0,15.6,99,0.00,,,0.00,Rainwise IP-100,2013-07-02 14:32:00,
2013-07-02 07:37:00,56.8,57.0,29.65,SSW,202,11.7,15.9,99,0.00,,,0.00,Rainwise IP-100,2013-07-02 14:37:00,
2013-07-02 07:42:00,57.0,57.0,29.65,SSW,202,4.7,15.4,99,0.00,,,0.00,Rainwise IP-100,2013-07-02 14:42:00,
2013-07-02 07:47:00,57.1,57.0,29.65,WSW,247,10.3,15.2,99,0.00,,,0.00,Rainwise IP-100,2013-07-02 14:47:00,
2013-07-02 07:52:00,57.2,57.0,29.65,SW,225,13.3,15.4,99,0.00,,,0.00,Rainwise IP-100,2013-07-02 14:52:00,
2013-07-02 07:57:00,57.2,57.0,29.65,WSW,247,5.8,15.2,99,0.00,,,0.00,Rainwise IP-100,2013-07-02 14:57:00,
2013-07-02 08:02:00,57.2,57.0,29.65,WSW,247,8.4,18.0,99,0.00,,,0.00,Rainwise IP-100,2013-07-02 15:02:00,
2013-07-02 08:07:00,57.2,57.0,29.65,WSW,247,12.1,18.0,99,0.00,,,0.00,Rainwise IP-100,2013-07-02 15:07:00,
2013-07-02 08:12:00,57.1,57.0,29.66,SSW,202,13.3,15.6,99,0.00,,,0.00,Rainwise IP-100,2013-07-02 15:12:00,
2013-07-02 08:17:00,57.1,56.5,29.66,WSW,247,11.0,18.7,98,0.00,,,0.00,Rainwise IP-100,2013-07-02 15:17:00,
2013-07-02 08:22:00,57.1,56.5,29.66,SSW,202,8.9,17.3,98,0.00,,,0.00,Rainwise IP-100,2013-07-02 15:22:00,
2013-07-02 08:27:00,57.1,56.5,29.67,SSW,202,7.7,15.9,98,0.00,,,0.00,Rainwise IP-100,2013-07-02 15:27:00,
2013-07-02 08:32:00,57.0,56.5,29.67,SW,225,11.4,17.0,98,0.00,,,0.00,Rainwise IP-100,2013-07-02 15:32:00,
2013-07-02 08:37:00,56.9,56.5,29.66,WSW,247,9.6,16.6,98,0.00,,,0.00,Rainwise IP-100,2013-07-02 15:37:00,
2013-07-02 08:42:00,57.0,56.5,29.67,SW,225,9.3,17.5,98,0.00,,,0.00,Rainwise IP-100,2013-07-02 15:42:00,
2013-07-02 08:47:00,57.1,56.5,29.67,SW,225,12.1,16.8,97,0.00,,,0.00,Rainwise IP-100,2013-07-02 15:47:00,
2013-07-02 08:52:00,57.2,56.5,29.67,SSW,202,8.9,15.6,97,0.00,,,0.00,Rainwise IP-100,2013-07-02 15:52:00,
2013-07-02 08:57:00,57.3,57.0,29.67,SW,225,10.7,14.9,97,0.00,,,0.00,Rainwise IP-100,2013-07-02 15:57:00,
2013-07-02 09:02:00,57.7,56.5,29.67,WSW,247,8.4,18.0,96,0.00,,,0.00,Rainwise IP-100,2013-07-02 16:02:00,
2013-07-02 09:07:00,57.8,57.0,29.67,SW,225,13.1,19.6,96,0.00,,,0.00,Rainwise IP-100,2013-07-02 16:07:00,
2013-07-02 09:12:00,57.8,57.0,29.67,SW,225,10.3,18.7,96,0.00,,,0.00,Rainwise IP-100,2013-07-02 16:12:00,
2013-07-02 09:17:00,57.9,57.0,29.67,WSW,247,5.8,15.4,96,0.00,,,0.00,Rainwise IP-100,2013-07-02 16:17:00,
2013-07-02 09:22:00,58.1,57.0,29.67,SW,225,9.8,16.1,96,0.00,,,0.00,Rainwise IP-100,2013-07-02 16:22:00,
2013-07-02 09:27:00,58.2,57.0,29.67,South,180,7.0,16.3,96,0.00,,,0.00,Rainwise IP-100,2013-07-02 16:27:00,
2013-07-02 09:32:00,58.2,57.0,29.67,SW,225,10.7,21.2,96,0.00,,,0.00,Rainwise IP-100,2013-07-02 16:32:00,
2013-07-02 09:37:00,58.4,57.0,29.67,SSW,202,15.9,17.3,96,0.00,,,0.00,Rainwise IP-100,2013-07-02 16:37:00,
2013-07-02 09:42:00,58.4,57.0,29.67,SW,225,12.6,18.2,96,0.00,,,0.00,Rainwise IP-100,2013-07-02 16:42:00,
2013-07-02 09:47:00,58.4,57.0,29.67,SSW,202,6.5,16.8,96,0.00,,,0.00,Rainwise IP-100,2013-07-02 16:47:00,
2013-07-02 09:52:00,58.6,57.5,29.67,SW,225,14.0,18.4,95,0.00,,,0.00,Rainwise IP-100,2013-07-02 16:52:00,
2013-07-02 09:57:00,58.5,57.5,29.67,WSW,247,7.7,17.7,95,0.00,,,0.00,Rainwise IP-100,2013-07-02 16:57:00,
2013-07-02 10:02:00,58.5,57.5,29.67,SSW,202,7.2,15.4,95,0.00,,,0.00,Rainwise IP-100,2013-07-02 17:02:00,
2013-07-02 10:07:00,58.7,57.5,29.67,SSW,202,11.4,14.7,95,0.00,,,0.00,Rainwise IP-100,2013-07-02 17:07:00,
2013-07-02 10:12:00,58.8,57.5,29.67,SSW,202,7.0,15.4,95,0.00,,,0.00,Rainwise IP-100,2013-07-02 17:12:00,
2013-07-02 10:17:00,59.1,57.0,29.67,SW,225,2.1,12.1,94,0.00,,,0.00,Rainwise IP-100,2013-07-02 17:17:00,
2013-07-02 10:22:00,59.6,57.5,29.67,SSW,202,8.9,14.0,94,0.00,,,0.00,Rainwise IP-100,2013-07-02 17:22:00,
2013-07-02 10:27:00,59.6,57.0,29.67,WSW,247,12.1,13.3,93,0.00,,,0.00,Rainwise IP-100,2013-07-02 17:27:00,
2013-07-02 10:32:00,59.6,57.0,29.67,SW,225,5.1,12.1,93,0.00,,,0.00,Rainwise IP-100,2013-07-02 17:32:00,
2013-07-02 10:37:00,59.9,57.5,29.67,WSW,247,7.9,11.2,92,0.00,,,0.00,Rainwise IP-100,2013-07-02 17:37:00,
2013-07-02 10:42:00,60.1,57.5,29.67,SSW,202,5.8,11.7,92,0.00,,,0.00,Rainwise IP-100,2013-07-02 17:42:00,
2013-07-02 10:47:00,60.6,57.5,29.67,SW,225,2.6,9.1,91,0.00,,,0.00,Rainwise IP-100,2013-07-02 17:47:00,
2013-07-02 10:52:00,61.3,59.0,29.67,SW,225,4.4,8.4,90,0.00,,,0.00,Rainwise IP-100,2013-07-02 17:52:00,
2013-07-02 10:57:00,61.8,59.0,29.67,WSW,247,3.5,9.6,89,0.00,,,0.00,Rainwise IP-100,2013-07-02 17:57:00,
2013-07-02 11:02:00,61.8,58.0,29.67,ESE,112,2.8,11.9,88,0.00,,,0.00,Rainwise IP-100,2013-07-02 18:02:00,
2013-07-02 11:07:00,61.9,58.0,29.68,South,180,2.1,7.7,88,0.00,,,0.00,Rainwise IP-100,2013-07-02 18:07:00,
2013-07-02 11:12:00,61.9,58.0,29.67,SW,225,2.1,9.1,87,0.00,,,0.00,Rainwise IP-100,2013-07-02 18:12:00,
2013-07-02 11:17:00,62.2,58.0,29.67,WSW,247,6.3,7.2,87,0.00,,,0.00,Rainwise IP-100,2013-07-02 18:17:00,
2013-07-02 11:22:00,62.6,59.0,29.67,WSW,247,5.6,11.9,87,0.00,,,0.00,Rainwise IP-100,2013-07-02 18:22:00,
2013-07-02 11:27:00,62.6,58.0,29.67,SSW,202,8.9,11.4,86,0.00,,,0.00,Rainwise IP-100,2013-07-02 18:27:00,
2013-07-02 11:32:00,63.2,59.0,29.67,SW,225,5.1,9.8,86,0.00,,,0.00,Rainwise IP-100,2013-07-02 18:32:00,
2013-07-02 11:37:00,63.7,59.0,29.67,WSW,247,4.0,9.1,84,0.00,,,0.00,Rainwise IP-100,2013-07-02 18:37:00,
2013-07-02 11:42:00,63.8,59.0,29.67,SSW,202,10.7,12.1,84,0.00,,,0.00,Rainwise IP-100,2013-07-02 18:42:00,
2013-07-02 11:47:00,63.4,59.0,29.67,WSW,247,3.0,11.0,84,0.00,,,0.00,Rainwise IP-100,2013-07-02 18:47:00,
2013-07-02 11:52:00,63.4,59.0,29.67,SSW,202,7.2,11.4,84,0.00,,,0.00,Rainwise IP-100,2013-07-02 18:52:00,
2013-07-02 11:57:00,63.3,59.0,29.67,West,270,7.5,11.2,84,0.00,,,0.00,Rainwise IP-100,2013-07-02 18:57:00,
2013-07-02 12:02:00,63.2,58.0,29.67,WSW,247,9.6,12.6,85,0.00,,,0.00,Rainwise IP-100,2013-07-02 19:02:00,
2013-07-02 12:07:00,63.1,58.0,29.66,WSW,247,8.9,14.2,85,0.00,,,0.00,Rainwise IP-100,2013-07-02 19:07:00,
2013-07-02 12:12:00,63.3,59.0,29.67,SW,225,6.3,14.9,85,0.00,,,0.00,Rainwise IP-100,2013-07-02 19:12:00,
2013-07-02 12:17:00,63.7,59.0,29.67,SW,225,9.1,14.2,84,0.00,,,0.00,Rainwise IP-100,2013-07-02 19:17:00,
2013-07-02 12:22:00,63.7,59.0,29.66,WSW,247,6.5,13.5,84,0.00,,,0.00,Rainwise IP-100,2013-07-02 19:22:00,
2013-07-02 12:27:00,63.5,59.0,29.67,WNW,292,4.7,14.7,84,0.00,,,0.00,Rainwise IP-100,2013-07-02 19:27:00,
2013-07-02 12:32:00,63.2,58.0,29.67,South,180,8.2,14.9,85,0.00,,,0.00,Rainwise IP-100,2013-07-02 19:32:00,
2013-07-02 12:37:00,62.8,58.0,29.67,West,270,9.1,18.2,85,0.00,,,0.00,Rainwise IP-100,2013-07-02 19:37:00,
2013-07-02 12:42:00,62.9,58.0,29.67,West,270,12.6,14.7,85,0.00,,,0.00,Rainwise IP-100,2013-07-02 19:42:00,
2013-07-02 12:47:00,62.9,58.0,29.67,SSW,202,12.1,20.1,85,0.00,,,0.00,Rainwise IP-100,2013-07-02 19:47:00,
2013-07-02 12:52:00,62.4,57.5,29.67,WSW,247,9.8,17.0,85,0.00,,,0.00,Rainwise IP-100,2013-07-02 19:52:00,
2013-07-02 12:57:00,62.6,58.0,29.67,SW,225,6.5,18.4,86,0.00,,,0.00,Rainwise IP-100,2013-07-02 19:57:00,
2013-07-02 13:02:00,62.9,58.0,29.68,SSW,202,11.7,18.9,85,0.00,,,0.00,Rainwise IP-100,2013-07-02 20:02:00,
2013-07-02 13:07:00,63.1,58.0,29.67,WSW,247,8.6,15.9,85,0.00,,,0.00,Rainwise IP-100,2013-07-02 20:07:00,
2013-07-02 13:12:00,63.5,59.0,29.67,SSW,202,10.0,15.6,84,0.00,,,0.00,Rainwise IP-100,2013-07-02 20:12:00,
2013-07-02 13:17:00,63.5,59.0,29.67,SW,225,6.1,17.5,84,0.00,,,0.00,Rainwise IP-100,2013-07-02 20:17:00,
2013-07-02 13:22:00,63.2,58.0,29.67,SW,225,8.9,21.5,84,0.00,,,0.00,Rainwise IP-100,2013-07-02 20:22:00,
2013-07-02 13:27:00,63.0,58.0,29.67,SW,225,15.4,20.5,85,0.00,,,0.00,Rainwise IP-100,2013-07-02 20:27:00,
2013-07-02 13:32:00,63.1,58.0,29.67,SW,225,10.0,20.1,85,0.00,,,0.00,Rainwise IP-100,2013-07-02 20:32:00,
2013-07-02 13:37:00,63.3,59.0,29.67,SW,225,10.7,17.0,84,0.00,,,0.00,Rainwise IP-100,2013-07-02 20:37:00,
2013-07-02 13:42:00,63.4,59.0,29.67,WSW,247,10.5,18.4,84,0.00,,,0.00,Rainwise IP-100,2013-07-02 20:42:00,
2013-07-02 13:47:00,63.5,59.0,29.67,SSW,202,12.1,15.9,84,0.00,,,0.00,Rainwise IP-100,2013-07-02 20:47:00,
2013-07-02 13:52:00,63.5,58.0,29.68,SW,225,4.0,17.3,83,0.00,,,0.00,Rainwise IP-100,2013-07-02 20:52:00,
2013-07-02 13:57:00,63.4,58.0,29.67,West,270,7.0,21.2,83,0.00,,,0.00,Rainwise IP-100,2013-07-02 20:57:00,
2013-07-02 14:02:00,63.8,59.0,29.67,West,270,9.3,17.7,83,0.00,,,0.00,Rainwise IP-100,2013-07-02 21:02:00,
2013-07-02 14:07:00,64.1,59.0,29.67,WSW,247,12.8,14.9,83,0.00,,,0.00,Rainwise IP-100,2013-07-02 21:07:00,
2013-07-02 14:12:00,64.1,58.0,29.67,SW,225,12.4,17.7,82,0.00,,,0.00,Rainwise IP-100,2013-07-02 21:12:00,
2013-07-02 14:17:00,63.5,58.0,29.67,SW,225,6.8,20.8,83,0.00,,,0.00,Rainwise IP-100,2013-07-02 21:17:00,
2013-07-02 14:22:00,63.3,59.0,29.67,SW,225,4.9,17.5,84,0.00,,,0.00,Rainwise IP-100,2013-07-02 21:22:00,
2013-07-02 14:27:00,63.8,59.0,29.68,South,180,12.8,19.1,83,0.00,,,0.00,Rainwise IP-100,2013-07-02 21:27:00,
2013-07-02 14:32:00,63.9,59.0,29.68,West,270,16.8,20.8,83,0.00,,,0.00,Rainwise IP-100,2013-07-02 21:32:00,
2013-07-02 14:37:00,63.7,58.0,29.68,WSW,247,10.7,16.8,83,0.00,,,0.00,Rainwise IP-100,2013-07-02 21:37:00,
2013-07-02 14:42:00,63.5,59.0,29.68,SSW,202,7.0,17.3,84,0.00,,,0.00,Rainwise IP-100,2013-07-02 21:42:00,
2013-07-02 14:47:00,62.9,58.0,29.68,SW,225,9.1,18.2,84,0.00,,,0.00,Rainwise IP-100,2013-07-02 21:47:00,
2013-07-02 14:52:00,62.4,57.5,29.68,SSW,202,10.0,20.3,85,0.00,,,0.00,Rainwise IP-100,2013-07-02 21:52:00,
2013-07-02 14:57:00,62.6,57.5,29.68,SW,225,6.5,17.7,85,0.00,,,0.00,Rainwise IP-100,2013-07-02 21:57:00,
2013-07-02 15:02:00,62.3,58.0,29.68,WSW,247,15.2,23.1,86,0.00,,,0.00,Rainwise IP-100,2013-07-02 22:02:00,
2013-07-02 15:07:00,61.6,57.5,29.68,SW,225,7.9,20.1,87,0.00,,,0.00,Rainwise IP-100,2013-07-02 22:07:00,
2013-07-02 15:12:00,61.3,57.5,29.68,SW,225,8.4,21.7,88,0.00,,,0.00,Rainwise IP-100,2013-07-02 22:12:00,
2013-07-02 15:17:00,61.4,57.5,29.68,West,270,12.8,20.1,87,0.00,,,0.00,Rainwise IP-100,2013-07-02 22:17:00,
2013-07-02 15:22:00,61.4,57.5,29.68,WSW,247,9.1,22.2,87,0.00,,,0.00,Rainwise IP-100,2013-07-02 22:22:00,
2013-07-02 15:27:00,61.4,57.5,29.68,WSW,247,11.4,20.3,87,0.00,,,0.00,Rainwise IP-100,2013-07-02 22:27:00,
2013-07-02 15:32:00,61.4,57.5,29.69,SW,225,13.1,21.0,87,0.00,,,0.00,Rainwise IP-100,2013-07-02 22:32:00,
2013-07-02 15:37:00,61.1,57.5,29.69,WSW,247,14.9,23.6,88,0.00,,,0.00,Rainwise IP-100,2013-07-02 22:37:00,
2013-07-02 15:42:00,60.7,57.0,29.69,SSW,202,15.6,23.3,89,0.00,,,0.00,Rainwise IP-100,2013-07-02 22:42:00,
2013-07-02 15:47:00,60.4,57.0,29.69,SSW,202,10.0,21.9,89,0.00,,,0.00,Rainwise IP-100,2013-07-02 22:47:00,
2013-07-02 15:52:00,60.3,57.5,29.69,SW,225,11.4,23.6,90,0.00,,,0.00,Rainwise IP-100,2013-07-02 22:52:00,
2013-07-02 15:57:00,59.8,57.0,29.69,WSW,247,4.4,21.2,90,0.00,,,0.00,Rainwise IP-100,2013-07-02 22:57:00,
2013-07-02 16:02:00,59.6,56.5,29.69,WSW,247,11.0,19.1,91,0.00,,,0.00,Rainwise IP-100,2013-07-02 23:02:00,
2013-07-02 16:07:00,59.8,57.0,29.69,SSW,202,9.3,21.5,91,0.00,,,0.00,Rainwise IP-100,2013-07-02 23:07:00,
2013-07-02 16:12:00,59.8,57.0,29.69,West,270,5.4,20.5,91,0.00,,,0.00,Rainwise IP-100,2013-07-02 23:12:00,
2013-07-02 16:17:00,59.4,56.5,29.69,SW,225,12.6,20.8,91,0.00,,,0.00,Rainwise IP-100,2013-07-02 23:17:00,
2013-07-02 16:22:00,58.9,56.5,29.69,SW,225,11.4,21.9,91,0.00,,,0.00,Rainwise IP-100,2013-07-02 23:22:00,
2013-07-02 16:27:00,58.5,56.5,29.69,SW,225,16.8,22.4,92,0.00,,,0.00,Rainwise IP-100,2013-07-02 23:27:00,
2013-07-02 16:32:00,58.2,56.0,29.69,SW,225,17.5,23.1,92,0.00,,,0.00,Rainwise IP-100,2013-07-02 23:32:00,
2013-07-02 16:37:00,58.2,56.5,29.69,SW,225,7.9,17.5,93,0.00,,,0.00,Rainwise IP-100,2013-07-02 23:37:00,
2013-07-02 16:42:00,58.5,57.0,29.69,SSW,202,8.4,17.7,93,0.00,,,0.00,Rainwise IP-100,2013-07-02 23:42:00,
2013-07-02 16:47:00,58.6,56.5,29.68,SW,225,11.2,22.9,92,0.00,,,0.00,Rainwise IP-100,2013-07-02 23:47:00,
2013-07-02 16:52:00,58.3,56.0,29.68,SSW,202,11.0,20.1,92,0.00,,,0.00,Rainwise IP-100,2013-07-02 23:52:00,
2013-07-02 16:57:00,58.0,56.5,29.69,WSW,247,11.4,23.3,93,0.00,,,0.00,Rainwise IP-100,2013-07-02 23:57:00,
2013-07-02 17:02:00,57.9,56.5,29.68,SW,225,8.6,20.1,93,0.00,,,0.00,Rainwise IP-100,2013-07-03 00:02:00,
2013-07-02 17:07:00,57.9,56.5,29.68,SSW,202,5.1,17.5,93,0.00,,,0.00,Rainwise IP-100,2013-07-03 00:07:00,
2013-07-02 17:12:00,57.7,56.0,29.68,SSW,202,11.7,20.8,93,0.00,,,0.00,Rainwise IP-100,2013-07-03 00:12:00,
2013-07-02 17:17:00,57.4,56.0,29.67,SW,225,9.6,21.7,93,0.00,,,0.00,Rainwise IP-100,2013-07-03 00:17:00,
2013-07-02 17:22:00,57.2,55.0,29.68,WSW,247,4.0,21.9,94,0.00,,,0.00,Rainwise IP-100,2013-07-03 00:22:00,
2013-07-02 17:27:00,57.2,55.0,29.68,West,270,10.0,19.4,94,0.00,,,0.00,Rainwise IP-100,2013-07-03 00:27:00,
2013-07-02 17:32:00,57.2,55.0,29.67,SW,225,12.8,19.4,94,0.00,,,0.00,Rainwise IP-100,2013-07-03 00:32:00,
2013-07-02 17:37:00,57.0,55.0,29.67,SW,225,21.2,21.2,94,0.00,,,0.00,Rainwise IP-100,2013-07-03 00:37:00,
2013-07-02 17:42:00,56.8,56.0,29.67,SW,225,8.9,21.2,95,0.00,,,0.00,Rainwise IP-100,2013-07-03 00:42:00,
2013-07-02 17:47:00,56.8,56.0,29.67,West,270,12.1,19.4,95,0.00,,,0.00,Rainwise IP-100,2013-07-03 00:47:00,
2013-07-02 17:52:00,56.8,56.0,29.67,West,270,5.1,21.0,95,0.00,,,0.00,Rainwise IP-100,2013-07-03 00:52:00,
2013-07-02 17:57:00,56.8,56.0,29.67,WSW,247,13.3,21.9,95,0.00,,,0.00,Rainwise IP-100,2013-07-03 00:57:00,
2013-07-02 18:02:00,56.8,56.0,29.68,SSW,202,10.5,18.2,95,0.00,,,0.00,Rainwise IP-100,2013-07-03 01:02:00,
2013-07-02 18:07:00,56.8,56.0,29.67,West,270,3.5,16.1,95,0.00,,,0.00,Rainwise IP-100,2013-07-03 01:07:00,
2013-07-02 18:12:00,57.0,56.0,29.68,WSW,247,4.4,17.5,96,0.00,,,0.00,Rainwise IP-100,2013-07-03 01:12:00,
2013-07-02 18:17:00,57.0,56.0,29.67,SW,225,8.9,17.7,96,0.00,,,0.00,Rainwise IP-100,2013-07-03 01:17:00,
2013-07-02 18:22:00,57.0,56.0,29.68,WSW,247,7.5,16.6,96,0.00,,,0.00,Rainwise IP-100,2013-07-03 01:22:00,
2013-07-02 18:27:00,56.9,56.0,29.68,SW,225,4.4,19.6,96,0.00,,,0.00,Rainwise IP-100,2013-07-03 01:27:00,
2013-07-02 18:32:00,56.9,56.0,29.68,SSW,202,6.3,15.2,96,0.00,,,0.00,Rainwise IP-100,2013-07-03 01:32:00,
2013-07-02 18:37:00,56.8,56.5,29.67,WSW,247,8.9,17.5,97,0.00,,,0.00,Rainwise IP-100,2013-07-03 01:37:00,
2013-07-02 18:42:00,56.6,56.0,29.68,West,270,10.5,15.9,97,0.00,,,0.00,Rainwise IP-100,2013-07-03 01:42:00,
2013-07-02 18:47:00,56.6,56.0,29.68,SSW,202,7.9,16.8,97,0.00,,,0.00,Rainwise IP-100,2013-07-03 01:47:00,
2013-07-02 18:52:00,56.5,56.0,29.67,West,270,8.2,16.8,97,0.00,,,0.00,Rainwise IP-100,2013-07-03 01:52:00,
2013-07-02 18:57:00,56.5,56.0,29.67,SW,225,9.6,18.2,98,0.00,,,0.00,Rainwise IP-100,2013-07-03 01:57:00,
2013-07-02 19:02:00,56.5,56.0,29.67,SW,225,8.4,14.5,98,0.00,,,0.00,Rainwise IP-100,2013-07-03 02:02:00,
2013-07-02 19:07:00,56.5,56.0,29.67,SW,225,10.7,14.0,98,0.00,,,0.00,Rainwise IP-100,2013-07-03 02:07:00,
2013-07-02 19:12:00,56.5,56.0,29.66,SW,225,10.7,16.1,98,0.00,,,0.00,Rainwise IP-100,2013-07-03 02:12:00,
2013-07-02 19:17:00,56.4,56.0,29.66,SSW,202,9.3,14.9,98,0.00,,,0.00,Rainwise IP-100,2013-07-03 02:17:00,
2013-07-02 19:22:00,56.4,56.5,29.66,SW,225,10.7,15.6,99,0.00,,,0.00,Rainwise IP-100,2013-07-03 02:22:00,
2013-07-02 19:27:00,56.4,56.5,29.67,West,270,10.5,16.8,99,0.00,,,0.00,Rainwise IP-100,2013-07-03 02:27:00,
2013-07-02 19:31:00,56.4,56.5,29.67,West,270,6.1,16.1,99,0.00,,,0.00,Rainwise IP-100,2013-07-03 02:31:00,
2013-07-02 19:36:00,56.4,56.5,29.68,SW,225,13.1,16.6,99,0.00,,,0.00,Rainwise IP-100,2013-07-03 02:36:00,
2013-07-02 19:41:00,56.6,56.5,29.67,WSW,247,5.8,14.5,99,0.00,,,0.00,Rainwise IP-100,2013-07-03 02:41:00,
2013-07-02 19:46:00,56.7,56.5,29.67,WSW,247,6.1,18.2,99,0.00,,,0.00,Rainwise IP-100,2013-07-03 02:46:00,
2013-07-02 19:51:00,56.7,56.5,29.67,WSW,247,6.5,15.6,99,0.00,,,0.00,Rainwise IP-100,2013-07-03 02:51:00,
2013-07-02 19:56:00,56.8,57.0,29.68,South,180,3.7,18.4,99,0.00,,,0.00,Rainwise IP-100,2013-07-03 02:56:00,
2013-07-02 20:01:00,56.7,56.5,29.68,SSW,202,9.3,18.2,99,0.00,,,0.00,Rainwise IP-100,2013-07-03 03:01:00,
2013-07-02 20:06:00,56.7,56.5,29.68,SW,225,3.5,16.3,99,0.00,,,0.00,Rainwise IP-100,2013-07-03 03:06:00,
2013-07-02 20:11:00,56.7,56.5,29.68,SW,225,9.8,14.7,100,0.00,,,0.00,Rainwise IP-100,2013-07-03 03:11:00,
2013-07-02 20:16:00,56.8,57.0,29.68,SSW,202,10.0,17.5,100,0.00,,,0.00,Rainwise IP-100,2013-07-03 03:16:00,
2013-07-02 20:21:00,56.8,57.0,29.67,WSW,247,7.2,17.5,100,0.00,,,0.00,Rainwise IP-100,2013-07-03 03:21:00,
2013-07-02 20:26:00,56.8,57.0,29.67,SW,225,5.8,16.1,100,0.00,,,0.00,Rainwise IP-100,2013-07-03 03:26:00,
2013-07-02 20:31:00,56.9,57.0,29.68,SSW,202,3.7,16.3,100,0.00,,,0.00,Rainwise IP-100,2013-07-03 03:31:00,
2013-07-02 20:36:00,56.9,57.0,29.68,WSW,247,6.1,14.9,100,0.00,,,0.00,Rainwise IP-100,2013-07-03 03:36:00,
2013-07-02 20:41:00,56.9,57.0,29.68,SW,225,7.2,13.3,100,0.00,,,0.00,Rainwise IP-100,2013-07-03 03:41:00,
2013-07-02 20:46:00,56.9,57.0,29.67,SW,225,8.9,14.7,100,0.00,,,0.00,Rainwise IP-100,2013-07-03 03:46:00,
2013-07-02 20:51:00,56.8,57.0,29.67,SSW,202,8.4,19.4,100,0.00,,,0.00,Rainwise IP-100,2013-07-03 03:51:00,
2013-07-02 20:56:00,56.8,57.0,29.68,SSW,202,10.5,15.6,100,0.00,,,0.00,Rainwise IP-100,2013-07-03 03:56:00,
2013-07-02 21:01:00,56.8,57.0,29.67,SW,225,8.4,15.6,100,0.00,,,0.00,Rainwise IP-100,2013-07-03 04:01:00,
2013-07-02 21:06:00,56.8,57.0,29.67,SSW,202,9.3,19.1,100,0.00,,,0.00,Rainwise IP-100,2013-07-03 04:06:00,
2013-07-02 21:11:00,56.8,57.0,29.68,WSW,247,7.9,17.7,100,0.00,,,0.00,Rainwise IP-100,2013-07-03 04:11:00,
2013-07-02 21:16:00,56.8,57.0,29.68,SW,225,7.9,18.7,100,0.00,,,0.00,Rainwise IP-100,2013-07-03 04:16:00,
2013-07-02 21:21:00,56.8,57.0,29.67,SSW,202,8.9,14.5,100,0.00,,,0.00,Rainwise IP-100,2013-07-03 04:21:00,
2013-07-02 21:26:00,56.8,57.0,29.68,SW,225,7.5,15.6,100,0.00,,,0.00,Rainwise IP-100,2013-07-03 04:26:00,
2013-07-02 21:31:00,56.8,57.0,29.67,SW,225,10.0,16.3,100,0.00,,,0.00,Rainwise IP-100,2013-07-03 04:31:00,
2013-07-02 21:36:00,56.8,57.0,29.68,SSW,202,6.5,17.7,100,0.00,,,0.00,Rainwise IP-100,2013-07-03 04:36:00,
2013-07-02 21:41:00,56.8,57.0,29.67,SSW,202,8.9,16.6,100,0.00,,,0.00,Rainwise IP-100,2013-07-03 04:41:00,
2013-07-02 21:44:00,56.8,57.0,29.67,SW,225,11.7,18.2,100,0.00,,,0.00,Rainwise IP-100,2013-07-03 04:44:00,
2013-07-02 21:49:00,56.8,57.0,29.67,SSW,202,8.6,15.9,100,0.00,,,0.00,Rainwise IP-100,2013-07-03 04:49:00,
2013-07-02 21:52:00,56.8,57.0,29.68,SW,225,10.0,14.9,100,0.00,,,0.00,Rainwise IP-100,2013-07-03 04:52:00,
2013-07-02 21:57:00,56.8,57.0,29.68,SW,225,10.0,15.2,100,0.00,,,0.00,Rainwise IP-100,2013-07-03 04:57:00,
2013-07-02 22:02:00,56.7,56.5,29.67,SSW,202,10.5,18.7,100,0.00,,,0.00,Rainwise IP-100,2013-07-03 05:02:00,
2013-07-02 22:07:00,56.6,56.5,29.67,SSW,202,7.2,18.0,100,0.00,,,0.00,Rainwise IP-100,2013-07-03 05:07:00,
2013-07-02 22:12:00,56.6,56.5,29.68,WSW,247,10.3,17.7,100,0.00,,,0.00,Rainwise IP-100,2013-07-03 05:12:00,
2013-07-02 22:17:00,56.6,56.5,29.69,SSW,202,5.4,18.2,100,0.00,,,0.00,Rainwise IP-100,2013-07-03 05:17:00,
2013-07-02 22:22:00,56.7,56.5,29.69,SSW,202,7.2,12.6,100,0.00,,,0.00,Rainwise IP-100,2013-07-03 05:22:00,
2013-07-02 22:27:00,56.7,56.5,29.68,SW,225,9.3,15.4,100,0.00,,,0.00,Rainwise IP-100,2013-07-03 05:27:00,
2013-07-02 22:29:00,56.7,56.5,29.68,SW,225,9.1,15.4,100,0.00,,,0.00,Rainwise IP-100,2013-07-03 05:29:00,
2013-07-02 22:34:00,56.7,56.5,29.69,SW,225,11.7,14.7,100,0.00,,,0.00,Rainwise IP-100,2013-07-03 05:34:00,
2013-07-02 22:39:00,56.7,56.5,29.69,WNW,292,7.9,15.6,100,0.00,,,0.00,Rainwise IP-100,2013-07-03 05:39:00,
2013-07-02 22:44:00,56.6,56.5,29.69,SSW,202,13.3,18.2,100,0.00,,,0.00,Rainwise IP-100,2013-07-03 05:44:00,
2013-07-02 22:49:00,56.6,56.5,29.69,SW,225,9.8,15.9,100,0.00,,,0.00,Rainwise IP-100,2013-07-03 05:49:00,
2013-07-02 22:54:00,56.7,56.5,29.69,SSW,202,7.2,11.9,100,0.00,,,0.00,Rainwise IP-100,2013-07-03 05:54:00,
2013-07-02 22:56:00,56.7,56.5,29.69,SSW,202,5.8,11.4,100,0.00,,,0.00,Rainwise IP-100,2013-07-03 05:56:00,
2013-07-02 23:01:00,56.7,56.5,29.69,WSW,247,6.5,15.2,100,0.00,,,0.00,Rainwise IP-100,2013-07-03 06:01:00,
2013-07-02 23:06:00,56.7,56.5,29.69,WSW,247,5.4,14.2,100,0.00,,,0.00,Rainwise IP-100,2013-07-03 06:06:00,
2013-07-02 23:11:00,56.7,56.5,29.70,SSW,202,12.6,12.6,100,0.00,,,0.00,Rainwise IP-100,2013-07-03 06:11:00,
2013-07-02 23:16:00,56.7,56.5,29.69,SW,225,3.7,13.3,100,0.00,,,0.00,Rainwise IP-100,2013-07-03 06:16:00,
2013-07-02 23:21:00,56.6,56.5,29.70,SSW,202,4.7,14.7,100,0.00,,,0.00,Rainwise IP-100,2013-07-03 06:21:00,
2013-07-02 23:25:00,56.5,56.5,29.69,SSW,202,11.2,14.7,100,0.00,,,0.00,Rainwise IP-100,2013-07-03 06:25:00,
2013-07-02 23:30:00,56.5,56.5,29.69,SW,225,12.1,12.1,100,0.00,,,0.00,Rainwise IP-100,2013-07-03 06:30:00,
2013-07-02 23:31:00,56.6,56.5,29.70,SSW,202,5.1,13.1,100,0.00,,,0.00,Rainwise IP-100,2013-07-03 06:31:00,
2013-07-02 23:32:00,56.6,56.5,29.69,SSW,202,9.1,13.1,100,0.00,,,0.00,Rainwise IP-100,2013-07-03 06:32:00,
2013-07-02 23:37:00,56.7,56.5,29.69,SW,225,5.1,12.1,100,0.00,,,0.00,Rainwise IP-100,2013-07-03 06:37:00,
2013-07-02 23:42:00,56.8,57.0,29.69,SSW,202,7.9,13.5,100,0.00,,,0.00,Rainwise IP-100,2013-07-03 06:42:00,
2013-07-02 23:43:00,56.8,57.0,29.69,SSW,202,8.9,13.8,100,0.00,,,0.00,Rainwise IP-100,2013-07-03 06:43:00,
2013-07-02 23:48:00,56.7,56.5,29.69,WSW,247,11.4,14.9,100,0.00,,,0.00,Rainwise IP-100,2013-07-03 06:48:00,
2013-07-02 23:53:00,56.7,56.5,29.69,WSW,247,8.4,14.9,100,0.00,,,0.00,Rainwise IP-100,2013-07-03 06:53:00,
2013-07-02 23:58:00,56.7,56.5,29.69,SSW,202,3.7,13.8,100,0.00,,,0.00,Rainwise IP-100,2013-07-03 06:58:00,